Location: Escondida
(34.1015°N, 106.8964°W)
Time: 22:25:43
(UTC+00:00)

Helios 1A Rocket - Pass Details

Date: 11 December 2025
Orbit: 431 x 441 km, 98.3° (Epoch: 21 January)

Event Time Altitude Azimuth Distance (km) Brightness Sun altitude
Rises 12:23:03 0° 149° (SSE) 2,394 6.8 -20.2°
Reaches altitude 10° 12:25:08 10° 140° (SE) 1,534 5.9 -19.8°
Maximum altitude 12:28:09 34° 73° (ENE) 737 4.0 -19.2°
Drops below altitude 10° 12:31:11 10° 7° (N) 1,555 5.0 -18.6°
Enters shadow 12:31:32 - 5° (N) 1,693 5.2 -18.5°
